map of AER home
Great Circle Mapper logo
AER - Airport
Location
City:  Sochi, Krasnodar, Russian Federation (Russia)
ICAO / IATA:URSS / AER

Details
Type:Airport (Aerodrome, Airfield)
Use:Public/Civil
Latitude:4327'00"N (43.449928)
Longitude:3957'24"E (39.956589)
Datum:WGS 1984
Elevation:89 ft (27 m)
Runways:2
Longest:9482 × 164 ft (2890 × 50 m), paved

Time
Time Zone:UTC+3 (DST+4)

Weather
METAR:URSS 211400Z 20004MPS 9999 FEW023CB BKN100 16/10 Q1015 NOSIG RMK R06/19003MPS MT OBSC QFE760 02000070 06000070
TAF:URSS 211339Z 2115/2215 17006G11MPS 9999 BKN006 BKN020CB OVC100
TEMPO 2115/2206 VRB07G12MPS 2200 -TSRA BKN004 BKN020CB OVC100
BECMG 2206/2208 6000 -SHRA BKN005 BKN020CB OVC100
TEMPO 2206/2215 2200 -SHRA BR BKN003 BKN020CB OVC100

Related Locations
Nearby:
Farthest:NTAV: 11014 mi / 17726 km
Raivavae, Tubuai Islands, Austral Islands, PF

Find:

   beyond  
but within

Other Information
Maps:
NOTAMs:
Links:
Sources:

  
flag of Russian Federation (Russia)   

Sectional Chart

Flight Planning
at skyvector.com

Satellite Image

Google Maps Satellite View

 

Copyright © 2004-2014 Karl L. Swartz. All rights reserved.
The Great Circle Mapper name and logo are trademarks of the Great Circle Mapper.
All other trademarks mentioned herein belong to their respective owners.
Please see credits for attibutions and further copyright information.

  Follow gcmap on Facebook Follow gcmap on Twitter

hCard Microformat

Geo Microformat